STARLINK-35973, 66632

Orbit data source: Space-Track

STARLINK-35973, 66632 is a payload satellite owned by SpaceX/Seattle (US) in LEO that was launched on Sun, 23 Nov 2025 UTC via an FALCON 9 launch vehicle from the Air Force Western Test Range (AFWTR). Payload-class satellites include a variety of spacecraft equipped with specific instruments for various scientific and technological missions. These include communications satellites like Starlink; space stations such as the ISS; scientific satellites like the Hubble; Earth observation satellites from companies like Planet Labs, Umbra, and HawkEye 360; GPS; miniature CubeSats for education and research; and military/defense satellites.

Loading next visibility...
Identifier
66632, 2025-271R
Orbit
LEO
Country
Flag of USUS
Related business
Manufacturer
SpaceX/Seattle
Mission
Operational Commercial Communications
Bus & Motor
STARLINK V2MO, Unknown motor
Mass
575 kg wet, ~530 kg dry
Launch date (UTC)
2025-11-23 (7 months ago)
Launch vehicle
FALCON 9
Launch site
Air Force Western Test Range (AFWTR)
Object type
Payload
Rocket body
Debris
Shape & HBR
Box + 2 Pan, 17.7 m
Radar Cross Section
36.964 m², Large (>1 m²)

Expand to show TLE details & history
Last TLE update: 3 days ago

TLE from 3 days ago
0 STARLINK-35973
1 66632U 25271R   26170.87031983  .00017053  00000-0  51453-3 0  9992
2 66632  53.1582  23.0030 0000857  78.3730 281.7368 15.34410173 33195
Epoch: 2026-06-19T20:53Z
TLE epoch observation values (Epoch: 2026-06-19T20:53:15.633Z)
Latitude
-0.00007°
Longitude
161.59472°
Altitude
463.455 km
Speed
7.636 km/s
True Right ascension
01h 32m 00s
True Declination
0° 00' 00"
Sunlit
Object was in daylight at epoch
Visualization orbit readout
Latitude
Unknown
Longitude
Unknown
Altitude
Unknown
Speed
Unknown
Apparent Right ascension
Unknown
Apparent Declination
Unknown
Sunlit
N/A
Visualization observer readout
Local Sidereal Time
07:31:49
Azimuth
Unknown
Elevation
Unknown
Doppler factor
Unknown
Orbital elements
Apogee altitude
463.516 km
Perigee altitude
462.344 km
Semi-major axis
6,841.067 km
Eccentricity
0.00009
Inclination
53.1582°
RAAN
23.003°
Arg. of periapsis
78.373°
True anomaly
281.72718°
Mean anomaly
281.7368°
Eccentric anomaly
281.73199°
Mean motion
3.83581 °/min
Orbital period
93.85 mins
BSTAR
0.00051453
Loading maneuver chart data...
Computing Atmospheric mass density...
Loading historical data...
Loading historical data...
Loading historical data...
Loading historical data...
Loading historical data...
Loading historical data...
Loading historical data...

Documentation

Showing up to 5 results
|